Location: Celina Division
(33.3022°N, 96.7580°W)
Time: 23:11:15
(UTC+00:00)

N. Korean satellite - Pass Details

Date: 30 November 2022
Orbit: 407 x 442 km, 97.3° (Epoch: 05 February)

Event Time Altitude Azimuth Distance (km) Brightness Sun altitude
Rises 10:45:35 0° 34° (NE) 2,514 10.5 -30.0°
Reaches altitude 10° 10:48:28 10° 61° (ENE) 1,624 9.8 -29.4°
Maximum altitude 10:50:21 14° 94° (E) 1,392 9.7 -29.0°
Drops below altitude 10° 10:52:12 10° 127° (SE) 1,604 9.9 -28.7°
Sets 10:55:01 0° 154° (SSE) 2,460 10.6 -28.1°
